FW5422 Glyfada GR current weather conditions

sailwx.info

Wind from 306 at 4 knots gusting 17

Air temperature 35.0° C
Dewpoint 14.3° C

Last reported at 2020-Aug-12 12:02 UTC.
Time now 2020-Aug-12 13:09 UTC

Location: N 37°53' E 023°45'.
View on Google Maps.

See reports from other nearby stations

  
Tides and Currents Weather Stations Pressure Air Temp Water Temp Dewpoint Dewpoint Depression Visibility Wind Speed Wind Dir Waves Ship Positions
date/time (UTC)wind fromknots sea level pressurealtimeterstation pressurevisibilityair tempwater tempwave heightnotes
2020-Aug-12 12:02 306 4 gusting 17 35.0
2020-Aug-12 11:56 053 8 gusting 19 35.0
2020-Aug-12 11:51 050 12 gusting 18 35.0
2020-Aug-12 11:47 042 7 gusting 13 35.0
2020-Aug-12 11:41 038 6 gusting 13 35.0
2020-Aug-12 11:35 046 6 gusting 13 35.0
2020-Aug-12 11:31 011 7 gusting 13 35.0
2020-Aug-12 11:25 024 6 gusting 15 34.4
2020-Aug-12 11:20 053 6 gusting 15 34.4
2020-Aug-12 11:16 333 6 gusting 14 34.4
2020-Aug-12 11:11 046 7 gusting 16 34.4
2020-Aug-12 11:05 036 6 gusting 17 34.4
2020-Aug-12 11:01 338 4 gusting 17 34.4
2020-Aug-12 10:55 344 8 gusting 16 34.4
2020-Aug-12 10:50 342 6 gusting 13 34.4
2020-Aug-12 10:47 327 7 gusting 13 34.4
2020-Aug-12 10:40 360 8 gusting 16 34.4
2020-Aug-12 10:35 346 8 gusting 16 34.4
2020-Aug-12 10:31 360 6 gusting 13 34.4
2020-Aug-12 10:25 325 6 gusting 15 34.4
2020-Aug-12 10:21 345 7 gusting 15 34.4
2020-Aug-12 10:16 355 6 gusting 15 33.9
2020-Aug-12 10:10 339 6 gusting 15 33.9
2020-Aug-12 10:05 348 8 gusting 15 33.9
2020-Aug-12 10:01 355 8 gusting 15 33.9
2020-Aug-12 09:55 360 7 gusting 19 33.9
2020-Aug-12 09:50 342 6 gusting 19 33.9
2020-Aug-12 09:46 287 8 gusting 14 33.9
2020-Aug-12 09:40 333 6 gusting 14 33.9
2020-Aug-12 09:35 020 7 gusting 14 33.9
2020-Aug-12 09:30 355 7 gusting 14 33.3
2020-Aug-12 09:25 020 9 gusting 15 33.3
2020-Aug-12 09:20 355 8 gusting 15 33.9
2020-Aug-12 09:15 306 6 gusting 14 33.9
2020-Aug-12 09:10 032 8 gusting 14 33.9
2020-Aug-12 09:05 348 6 gusting 14 33.3
2020-Aug-12 09:01 005 6 gusting 13 33.9
2020-Aug-12 08:55 338 3 gusting 12 33.9
2020-Aug-12 08:50 296 5 gusting 13 33.3
2020-Aug-12 08:46 336 7 gusting 16 33.3
2020-Aug-12 08:40 331 6 gusting 16 33.3
2020-Aug-12 08:35 360 3 gusting 13 33.3
2020-Aug-12 08:30 319 6 gusting 12 33.3
2020-Aug-12 08:25 350 6 gusting 12 32.8
2020-Aug-12 08:15 349 5 gusting 12 32.8
2020-Aug-12 08:10 334 6 gusting 11 32.8
2020-Aug-12 08:05 360 5 gusting 11 32.8
2020-Aug-12 07:55 340 5 gusting 8 32.2
2020-Aug-12 07:50 306 2 gusting 6 32.2
2020-Aug-12 07:40 291 3 gusting 7 31.7
2020-Aug-12 07:32 289 2 gusting 8 31.7
2020-Aug-12 07:25 017 3 gusting 7 31.7
2020-Aug-12 07:20 302 2 gusting 10 31.7
2020-Aug-12 07:16 329 5 gusting 10 31.7
2020-Aug-12 07:10 338 1 gusting 9 31.7
2020-Aug-12 07:05 316 1 gusting 6 31.7
2020-Aug-12 07:01 296 0 gusting 4 31.7
2020-Aug-12 06:56 303 0 gusting 4 31.1
2020-Aug-12 06:51 293 0 gusting 2 31.1
2020-Aug-12 06:46 263 0 gusting 5 30.6
2020-Aug-12 06:40 138 0 gusting 6 30.0
2020-Aug-12 06:35 036 0 gusting 6 30.6
2020-Aug-12 06:31 302 1 gusting 5 30.0
2020-Aug-12 06:25 240 2 gusting 4 29.4
2020-Aug-12 06:20 222 0 gusting 2 29.4
2020-Aug-12 06:15 226 0 gusting 5 29.4
2020-Aug-12 06:10 227 1 gusting 5 29.4
2020-Aug-12 06:05 032 1 gusting 2 29.4
2020-Aug-12 06:00 034 29.4
2020-Aug-12 05:55 034 28.9
2020-Aug-12 05:50 034 28.9
2020-Aug-12 05:45 034 28.9
2020-Aug-12 05:41 034 28.9
2020-Aug-12 05:35 034 28.3
2020-Aug-12 05:31 035 28.3
2020-Aug-12 05:25 035 28.3
2020-Aug-12 05:20 035 28.3
2020-Aug-12 05:15 035 28.3
2020-Aug-12 05:10 035 27.8
2020-Aug-12 05:05 035 27.8
2020-Aug-12 05:00 035 27.8
2020-Aug-12 04:55 035 27.2
2020-Aug-12 04:50 035 27.2
2020-Aug-12 04:45 035 26.7
2020-Aug-12 04:40 035 26.7
2020-Aug-12 04:35 035 26.7
2020-Aug-12 04:25 035 26.7
2020-Aug-12 04:20 035 0 gusting 2 26.7
2020-Aug-12 04:10 034 0 gusting 2 26.1
2020-Aug-12 04:05 034 1 gusting 2 26.1
2020-Aug-12 03:55 310 26.1
2020-Aug-12 03:50 310 26.7
2020-Aug-12 03:40 310 26.7
2020-Aug-12 03:35 310 26.7
2020-Aug-12 03:30 310 26.7
2020-Aug-12 03:20 310 26.1
2020-Aug-12 03:15 310 26.7
2020-Aug-12 03:10 310 26.7
2020-Aug-12 03:05 310 26.7
2020-Aug-12 03:00 310 26.7
2020-Aug-12 02:55 310 26.7
2020-Aug-12 02:50 310 0 gusting 1 26.7
2020-Aug-12 02:45 310 26.1
2020-Aug-12 02:40 310 26.7
2020-Aug-12 02:35 310 26.1
2020-Aug-12 02:30 310 26.1
2020-Aug-12 02:21 310 26.7
2020-Aug-12 02:16 310 26.7
2020-Aug-12 02:11 310 26.7
2020-Aug-12 02:05 310 26.7
2020-Aug-12 02:02 310 26.7
2020-Aug-12 01:55 310 26.7
2020-Aug-12 01:50 310 26.7
2020-Aug-12 01:46 310 0 gusting 1 26.7
2020-Aug-12 01:40 310 26.7
2020-Aug-12 01:35 310 27.2
2020-Aug-12 01:31 310 0 gusting 3 26.7
2020-Aug-12 01:25 310 1 gusting 3 27.2
2020-Aug-12 01:20 311 0 gusting 3 27.2
2020-Aug-12 01:16 311 1 gusting 3 27.2
2020-Aug-12 01:10 311 1 gusting 3 27.2
2020-Aug-12 01:06 336 0 gusting 4 27.8
2020-Aug-12 01:01 340 2 gusting 4 28.3
2020-Aug-12 00:55 336 1 gusting 6 28.3
2020-Aug-12 00:50 331 2 gusting 6 28.3
2020-Aug-12 00:47 337 1 gusting 4 27.8
2020-Aug-12 00:40 338 1 gusting 4 27.8
2020-Aug-12 00:35 338 1 gusting 4 27.8
2020-Aug-12 00:32 340 1 gusting 4 27.8
2020-Aug-12 00:25 331 1 gusting 5 27.8
2020-Aug-12 00:21 332 2 gusting 5 27.8
2020-Aug-12 00:16 329 1 gusting 3 27.8
2020-Aug-12 00:10 332 0 gusting 2 27.8
2020-Aug-12 00:05 288 0 gusting 2 27.8
2020-Aug-12 00:01 263 27.2
2020-Aug-11 23:55 263 27.8
2020-Aug-11 23:50 263 27.8
2020-Aug-11 23:46 263 0 gusting 1 27.8
2020-Aug-11 23:40 263 27.8
2020-Aug-11 23:35 263 27.8
2020-Aug-11 23:32 263 27.8
2020-Aug-11 23:25 263 27.8
2020-Aug-11 23:20 263 27.8
2020-Aug-11 23:15 263 27.8
2020-Aug-11 23:10 263 0 gusting 1 27.8
2020-Aug-11 23:05 263 28.3
2020-Aug-11 23:02 263 28.3
2020-Aug-11 22:56 234 0 gusting 2 28.3
2020-Aug-11 22:50 234 0 gusting 1 28.3
2020-Aug-11 22:46 234 0 gusting 2 28.9
2020-Aug-11 22:40 217 0 gusting 2 30.0
2020-Aug-11 22:35 209 0 gusting 2 30.6
2020-Aug-11 22:31 221 0 gusting 2 30.6
2020-Aug-11 22:25 272 0 gusting 1 29.4
2020-Aug-11 22:20 331 28.3
2020-Aug-11 22:15 329 28.3
2020-Aug-11 22:10 328 0 gusting 3 28.3
2020-Aug-11 22:05 334 0 gusting 6 28.9
2020-Aug-11 22:01 348 1 gusting 6 28.9
2020-Aug-11 21:55 314 0 gusting 5 28.3
2020-Aug-11 21:50 323 1 gusting 5 28.9
2020-Aug-11 21:45 046 0 gusting 2 28.9
2020-Aug-11 21:40 047 0 gusting 2 30.0
2020-Aug-11 21:35 047 0 gusting 1 31.7
2020-Aug-11 21:30 047 0 gusting 1 32.2
2020-Aug-11 21:25 047 0 gusting 2 31.7
2020-Aug-11 21:20 047 0 gusting 2 32.2
2020-Aug-11 21:15 047 0 gusting 2 32.2
2020-Aug-11 21:10 047 0 gusting 2 32.2
2020-Aug-11 21:05 047 0 gusting 2 32.8
2020-Aug-11 21:00 047 0 gusting 2 31.7
2020-Aug-11 20:55 047 0 gusting 1 30.6
2020-Aug-11 20:50 047 0 gusting 2 30.0
2020-Aug-11 20:45 047 29.4
2020-Aug-11 20:40 047 30.6
2020-Aug-11 20:35 044 0 gusting 2 31.1
2020-Aug-11 20:30 019 30.0
2020-Aug-11 20:25 019 0 gusting 2 29.4
2020-Aug-11 20:16 326 29.4
2020-Aug-11 20:10 322 0 gusting 6 30.0
2020-Aug-11 20:05 355 0 gusting 6 29.4
2020-Aug-11 20:00 346 1 gusting 6 29.4
2020-Aug-11 19:55 360 2 gusting 6 29.4
2020-Aug-11 19:50 321 2 gusting 7 29.4
2020-Aug-11 19:45 332 2 gusting 7 29.4
2020-Aug-11 19:40 331 2 gusting 6 29.4
2020-Aug-11 19:35 336 2 gusting 6 29.4
2020-Aug-11 19:30 355 2 gusting 6 30.0
2020-Aug-11 19:25 342 1 gusting 6 29.4
2020-Aug-11 19:20 324 2 gusting 6 30.0
2020-Aug-11 19:15 325 0 gusting 5 30.0
2020-Aug-11 19:10 336 1 gusting 5 30.0
2020-Aug-11 19:05 350 1 gusting 6 30.0
2020-Aug-11 19:00 347 0 gusting 6 30.0
2020-Aug-11 18:55 351 1 gusting 5 30.0
2020-Aug-11 18:50 346 1 gusting 4 30.0
2020-Aug-11 18:45 322 0 gusting 4 30.6
2020-Aug-11 18:40 351 1 gusting 5 30.6
2020-Aug-11 18:35 349 1 gusting 5 30.6
2020-Aug-11 18:31 340 2 gusting 5 30.6
2020-Aug-11 18:25 009 1 gusting 5 30.6
2020-Aug-11 18:20 005 1 gusting 6 30.6
2020-Aug-11 18:16 040 2 gusting 6 30.6
2020-Aug-11 18:10 044 2 gusting 6 30.6
2020-Aug-11 18:05 032 2 gusting 6 30.6
2020-Aug-11 18:01 337 1 gusting 4 30.6
2020-Aug-11 17:55 042 0 gusting 6 31.1
2020-Aug-11 17:50 042 1 gusting 8 31.1
2020-Aug-11 17:45 045 3 gusting 8 31.1
2020-Aug-11 17:40 360 2 gusting 8 31.1
2020-Aug-11 17:30 346 3 gusting 11 31.1
2020-Aug-11 17:25 041 5 gusting 13 31.1
2020-Aug-11 17:20 360 6 gusting 13 31.7
2020-Aug-11 17:15 339 5 gusting 12 31.7
2020-Aug-11 17:10 344 4 gusting 12 31.7
2020-Aug-11 17:05 012 3 gusting 10 31.7
2020-Aug-11 17:00 034 2 gusting 11 31.7
2020-Aug-11 16:55 360 6 gusting 11 32.2
2020-Aug-11 16:50 039 4 gusting 12 32.2
2020-Aug-11 16:45 034 6 gusting 12 32.2
2020-Aug-11 16:40 042 3 gusting 13 32.2
2020-Aug-11 16:35 016 5 gusting 13 32.2
2020-Aug-11 16:25 032 6 gusting 12 32.8
2020-Aug-11 16:20 040 6 gusting 12 32.8
2020-Aug-11 16:15 355 4 gusting 13 32.8
2020-Aug-11 16:05 321 5 gusting 12 32.8
2020-Aug-11 15:55 005 6 gusting 11 32.8
2020-Aug-11 15:45 024 6 gusting 13 32.8
2020-Aug-11 15:40 019 6 gusting 14 32.8
2020-Aug-11 15:35 355 6 gusting 14 33.3
2020-Aug-11 15:30 360 6 gusting 13 33.3
2020-Aug-11 15:20 055 6 gusting 15 33.3
2020-Aug-11 15:15 344 7 gusting 14 33.3
2020-Aug-11 15:10 360 6 gusting 15 33.3
2020-Aug-11 15:05 010 6 gusting 15 33.3
2020-Aug-11 15:00 005 5 gusting 13 33.9
2020-Aug-11 14:55 005 6 gusting 13 33.3
2020-Aug-11 14:50 047 6 gusting 12 33.3
2020-Aug-11 14:40 360 7 gusting 13 33.9
2020-Aug-11 14:35 027 6 gusting 12 33.3
2020-Aug-11 14:25 054 6 gusting 14 33.3
2020-Aug-11 14:20 360 9 gusting 14 33.3
2020-Aug-11 14:15 039 8 gusting 17 33.9
2020-Aug-11 14:10 005 5 gusting 17 33.9
2020-Aug-11 14:05 355 4 gusting 14 33.9
2020-Aug-11 13:55 019 5 gusting 13 33.9
2020-Aug-11 13:50 026 7 gusting 14 33.9
2020-Aug-11 13:40 341 11 gusting 18 33.9
2020-Aug-11 13:35 360 11 gusting 16 33.9
2020-Aug-11 13:25 005 8 gusting 15 33.9
2020-Aug-11 13:20 046 8 gusting 15 33.9
2020-Aug-11 13:15 355 5 gusting 15 33.9
2020-Aug-11 13:05 355 7 gusting 15 33.9
2020-Aug-11 12:55 347 7 gusting 13 33.9
2020-Aug-11 12:48 051 7 gusting 18 33.9
2020-Aug-11 12:41 042 7 gusting 18 33.9
2020-Aug-11 12:36 047 5 gusting 17 33.9
2020-Aug-11 12:32 030 8 gusting 19 33.9
2020-Aug-11 12:26 077 6 gusting 16 34.4
2020-Aug-11 12:21 319 5 gusting 14 33.9
2020-Aug-11 12:16 355 7 gusting 19 33.9
2020-Aug-11 12:10 005 6 gusting 19 33.9
2020-Aug-11 12:06 349 7 gusting 17 33.9
2020-Aug-11 12:02 096 11 gusting 17 33.9
2020-Aug-11 11:55 355 8 gusting 18 33.9
2020-Aug-11 11:50 023 8 gusting 18 33.9
2020-Aug-11 11:46 030 7 gusting 12 33.9
2020-Aug-11 11:40 337 5 gusting 13 33.3
2020-Aug-11 11:36 342 6 gusting 15 33.3
2020-Aug-11 11:30 348 7 gusting 15 33.9
2020-Aug-11 11:26 346 5 gusting 15 33.9
2020-Aug-11 11:20 019 6 gusting 15 33.3
2020-Aug-11 11:16 315 6 gusting 14 33.3
2020-Aug-11 11:11 355 4 gusting 14 33.3
2020-Aug-11 11:05 355 6 gusting 13 33.3
2020-Aug-11 11:01 046 8 gusting 13 33.3
2020-Aug-11 10:55 347 5 gusting 15 33.3
2020-Aug-11 10:51 034 5 gusting 15 32.8
2020-Aug-11 10:46 360 8 gusting 15 32.8
2020-Aug-11 10:40 029 6 gusting 15 32.8
2020-Aug-11 10:35 011 7 gusting 15 33.3
2020-Aug-11 10:31 355 4 gusting 15 32.8
2020-Aug-11 10:25 066 6 gusting 13 33.3
2020-Aug-11 10:20 331 6 gusting 13 33.3
2020-Aug-11 10:17 341 6 gusting 12 33.3
2020-Aug-11 10:10 355 4 gusting 11 33.3
2020-Aug-11 10:06 050 3 gusting 11 33.3
2020-Aug-11 10:00 310 6 gusting 14 32.8
2020-Aug-11 09:56 049 6 gusting 17 32.8
2020-Aug-11 09:50 017 6 gusting 17 32.8
2020-Aug-11 09:46 328 9 gusting 16 32.8
2020-Aug-11 09:41 017 8 gusting 16 32.8
2020-Aug-11 09:35 344 7 gusting 16 32.8
2020-Aug-11 09:31 022 8 gusting 17 32.2
2020-Aug-11 09:25 317 7 gusting 13 32.8
2020-Aug-11 09:20 342 3 gusting 8 32.8
2020-Aug-11 09:15 029 3 gusting 15 32.2
2020-Aug-11 09:10 036 6 gusting 15 32.2
2020-Aug-11 09:05 016 6 gusting 12 32.2
2020-Aug-11 09:00 039 6 gusting 14 32.2
2020-Aug-11 08:55 360 5 gusting 14 32.2
2020-Aug-11 08:50 342 6 gusting 13 32.2
2020-Aug-11 08:45 033 6 gusting 13 32.2
2020-Aug-11 08:40 035 5 gusting 13 32.2
2020-Aug-11 08:35 302 6 gusting 13 31.7
2020-Aug-11 08:25 355 6 gusting 13 32.2
2020-Aug-11 08:20 009 2 gusting 11 32.2
2020-Aug-11 08:10 021 7 gusting 14 31.7
2020-Aug-11 08:05 022 7 gusting 15 31.7
2020-Aug-11 07:55 009 6 gusting 15 31.1
2020-Aug-11 07:50 015 7 gusting 14 31.1
2020-Aug-11 07:40 041 6 gusting 17 31.1
2020-Aug-11 07:35 005 7 gusting 17 31.1
2020-Aug-11 07:30 333 9 gusting 14 31.1
2020-Aug-11 07:21 355 5 gusting 13 30.6
2020-Aug-11 07:16 333 4 gusting 10 30.6
2020-Aug-11 07:10 342 4 gusting 9 30.0
2020-Aug-11 07:05 051 5 gusting 10 30.0
2020-Aug-11 07:01 346 6 gusting 10 30.0
2020-Aug-11 06:56 344 3 gusting 11 30.0
2020-Aug-11 06:50 020 3 gusting 11 29.4
2020-Aug-11 06:47 044 5 gusting 11 29.4
2020-Aug-11 06:41 360 6 gusting 11 29.4
2020-Aug-11 06:35 337 6 gusting 12 29.4
2020-Aug-11 06:31 349 6 gusting 12 28.9
2020-Aug-11 06:25 350 5 gusting 12 28.9
2020-Aug-11 06:20 026 5 gusting 13 28.9
2020-Aug-11 06:15 337 6 gusting 15 28.9
2020-Aug-11 06:10 346 6 gusting 15 28.9
2020-Aug-11 06:05 343 6 gusting 12 28.9
2020-Aug-11 06:01 346 3 gusting 9 28.3
2020-Aug-11 05:55 360 4 gusting 11 28.3
2020-Aug-11 05:50 360 6 gusting 13 28.3
2020-Aug-11 05:45 338 6 gusting 13 28.3
2020-Aug-11 05:40 336 5 gusting 9 27.8
2020-Aug-11 05:35 331 4 gusting 11 27.8
2020-Aug-11 05:30 341 4 gusting 11 27.8
2020-Aug-11 05:25 336 5 gusting 9 27.2
2020-Aug-11 05:20 336 4 gusting 10 27.2
2020-Aug-11 05:15 334 3 gusting 7 27.2
2020-Aug-11 05:10 338 3 gusting 8 27.2
2020-Aug-11 05:05 360 3 gusting 8 26.7
2020-Aug-11 05:00 338 2 gusting 6 26.7
2020-Aug-11 04:55 338 1 gusting 5 26.7
2020-Aug-11 04:50 336 1 gusting 4 26.1
2020-Aug-11 04:45 336 0 gusting 2 26.1
2020-Aug-11 04:40 336 25.6
2020-Aug-11 04:35 336 25.6
2020-Aug-11 04:25 336 25.0
2020-Aug-11 04:20 336 25.0
2020-Aug-11 04:10 336 25.0
2020-Aug-11 04:05 336 0 gusting 2 25.0
2020-Aug-11 03:55 336 25.0
2020-Aug-11 03:50 336 25.0
2020-Aug-11 03:45 336 25.0
2020-Aug-11 03:40 336 25.0
2020-Aug-11 03:35 336 25.6
2020-Aug-11 03:25 336 25.0
2020-Aug-11 03:20 336 25.6
2020-Aug-11 03:15 336 25.6
2020-Aug-11 03:10 336 25.6
2020-Aug-11 03:00 336 0 gusting 1 25.6
2020-Aug-11 02:51 336 25.6
2020-Aug-11 02:46 336 0 gusting 1 26.1
2020-Aug-11 02:41 336 0 gusting 3 25.6
2020-Aug-11 02:36 336 1 gusting 3 26.1
2020-Aug-11 02:31 336 0 gusting 1 26.1
2020-Aug-11 02:25 336 26.1
2020-Aug-11 02:21 336 26.1
2020-Aug-11 02:18 336 26.1
2020-Aug-11 02:10 336 26.1
2020-Aug-11 02:05 336 26.1
2020-Aug-11 02:02 336 0 gusting 2 26.1
2020-Aug-11 01:55 336 0 gusting 2 26.1
2020-Aug-11 01:51 336 1 gusting 2 26.1
2020-Aug-11 01:46 336 0 gusting 2 25.6
2020-Aug-11 01:41 336 0 gusting 2 25.6
2020-Aug-11 01:36 336 25.6
2020-Aug-11 01:31 336 25.6
2020-Aug-11 01:25 336 25.6
2020-Aug-11 01:21 336 26.1
2020-Aug-11 01:16 336 26.1
2020-Aug-11 01:05 336 0 gusting 2 26.1
2020-Aug-11 01:01 336 26.1
2020-Aug-11 00:56 336 26.1
2020-Aug-11 00:51 336 26.1
2020-Aug-11 00:47 336 0 gusting 3 26.1
2020-Aug-11 00:41 336 0 gusting 3 26.1
2020-Aug-11 00:35 336 0 gusting 3 26.1
2020-Aug-11 00:31 336 0 gusting 4 26.1
2020-Aug-11 00:25 336 1 gusting 4 26.7
2020-Aug-11 00:21 336 1 gusting 4 26.7
2020-Aug-11 00:16 336 1 gusting 4 26.7
2020-Aug-11 00:10 336 0 gusting 2 26.7
2020-Aug-11 00:05 336 0 gusting 4 26.7
2020-Aug-11 00:01 336 0 gusting 5 26.7
2020-Aug-10 23:56 336 2 gusting 5 26.7
2020-Aug-10 23:50 336 1 gusting 4 26.7
2020-Aug-10 23:47 336 1 gusting 4 26.7
2020-Aug-10 23:41 336 1 gusting 7 26.7
2020-Aug-10 23:36 336 2 gusting 7 26.7
2020-Aug-10 23:31 336 3 gusting 6 26.7
2020-Aug-10 23:25 336 3 gusting 6 26.7
2020-Aug-10 23:21 336 2 gusting 5 26.7
2020-Aug-10 23:15 336 1 gusting 4 26.7
2020-Aug-10 23:10 336 1 gusting 4 26.7
2020-Aug-10 23:06 336 1 gusting 3 26.7
2020-Aug-10 23:01 336 1 gusting 3 26.7
2020-Aug-10 22:55 336 0 gusting 3 27.2
2020-Aug-10 22:50 336 0 gusting 2 27.2
2020-Aug-10 22:46 336 0 gusting 3 27.2
2020-Aug-10 22:40 336 0 gusting 3 27.2
2020-Aug-10 22:35 336 0 gusting 1 27.2
2020-Aug-10 22:31 336 27.2
2020-Aug-10 22:25 336 0 gusting 3 27.2
2020-Aug-10 22:20 336 0 gusting 2 27.2
2020-Aug-10 22:16 336 0 gusting 2 27.2
2020-Aug-10 22:10 336 0 gusting 2 27.2
2020-Aug-10 22:01 336 1 gusting 3 27.2
2020-Aug-10 21:55 336 27.2
2020-Aug-10 21:50 336 0 gusting 2 27.2
2020-Aug-10 21:46 336 27.2
2020-Aug-10 21:40 336 0 gusting 3 27.2
2020-Aug-10 21:35 336 1 gusting 3 27.2
2020-Aug-10 21:30 336 0 gusting 2 27.2
2020-Aug-10 21:25 336 27.2
2020-Aug-10 21:20 336 0 gusting 2 27.2
2020-Aug-10 21:16 336 0 gusting 2 27.2
2020-Aug-10 21:10 336 0 gusting 2 27.2
2020-Aug-10 21:05 336 0 gusting 1 27.2
2020-Aug-10 21:01 336 27.2
2020-Aug-10 20:55 336 27.8
2020-Aug-10 20:50 336 27.2
2020-Aug-10 20:46 336 27.8
2020-Aug-10 20:40 336 27.8
2020-Aug-10 20:35 336 27.8
2020-Aug-10 20:30 336 0 gusting 2 27.8
2020-Aug-10 20:25 336 0 gusting 1 27.8
2020-Aug-10 20:20 336 27.8
2020-Aug-10 20:15 336 27.8
2020-Aug-10 20:10 336 0 gusting 3 27.8
2020-Aug-10 20:05 336 27.8
2020-Aug-10 20:00 336 27.8
2020-Aug-10 19:55 336 0 gusting 4 27.8
2020-Aug-10 19:50 336 0 gusting 4 27.8
2020-Aug-10 19:45 336 1 gusting 4 28.3
2020-Aug-10 19:40 336 0 gusting 5 28.3
2020-Aug-10 19:35 336 2 gusting 6 28.3
2020-Aug-10 19:30 326 3 gusting 6 28.3
2020-Aug-10 19:25 351 2 gusting 5 28.3
2020-Aug-10 19:20 329 2 gusting 7 28.3
2020-Aug-10 19:16 338 1 gusting 7 28.3
2020-Aug-10 19:10 331 1 gusting 6 28.9
2020-Aug-10 19:05 338 2 gusting 6 28.9
2020-Aug-10 19:01 335 1 gusting 6 28.9
2020-Aug-10 18:55 348 2 gusting 6 28.9
2020-Aug-10 18:50 348 2 gusting 7 28.9
2020-Aug-10 18:45 337 3 gusting 8 28.9
2020-Aug-10 18:40 338 4 gusting 8 28.9
2020-Aug-10 18:35 332 3 gusting 7 28.9
2020-Aug-10 18:30 336 3 gusting 8 28.9
2020-Aug-10 18:25 034 4 gusting 10 28.9
2020-Aug-10 18:20 355 4 gusting 10 28.9
2020-Aug-10 18:15 349 6 gusting 9 28.9
2020-Aug-10 18:10 337 3 gusting 10 28.9
2020-Aug-10 18:05 347 5 gusting 10 29.4
2020-Aug-10 18:01 013 6 gusting 11 29.4
2020-Aug-10 17:55 333 4 gusting 11 29.4
2020-Aug-10 17:50 331 4 gusting 10 29.4
2020-Aug-10 17:45 348 4 gusting 9 29.4
2020-Aug-10 17:40 048 5 gusting 9 29.4
2020-Aug-10 17:35 360 2 gusting 10 29.4
2020-Aug-10 17:30 042 3 gusting 10 29.4
2020-Aug-10 17:25 339 4 gusting 14 29.4
2020-Aug-10 17:20 024 7 gusting 14 29.4
2020-Aug-10 17:15 355 5 gusting 11 30.0
2020-Aug-10 17:10 005 6 gusting 14 30.0
2020-Aug-10 17:05 334 6 gusting 14 30.0
2020-Aug-10 17:01 346 4 gusting 8 30.0
2020-Aug-10 16:55 360 3 gusting 12 30.0
2020-Aug-10 16:50 018 6 gusting 13 30.0
2020-Aug-10 16:45 360 4 gusting 14 30.6
2020-Aug-10 16:40 360 7 gusting 14 30.6
2020-Aug-10 16:35 026 6 gusting 13 30.6
2020-Aug-10 16:25 051 6 gusting 14 30.6
2020-Aug-10 16:20 046 7 gusting 14 30.6
2020-Aug-10 16:10 342 4 gusting 13 31.1
2020-Aug-10 16:00 050 6 gusting 16 31.1
2020-Aug-10 15:55 325 6 gusting 15 31.1
2020-Aug-10 15:50 345 8 gusting 15 31.1
2020-Aug-10 15:40 047 6 gusting 12 31.1
2020-Aug-10 15:35 317 6 gusting 13 31.1
2020-Aug-10 15:30 005 3 gusting 13 31.1
2020-Aug-10 15:25 331 6 gusting 19 31.1
2020-Aug-10 15:20 319 9 gusting 19 31.1
2020-Aug-10 15:10 348 3 gusting 13 31.7
2020-Aug-10 15:00 346 3 gusting 16 31.1
2020-Aug-10 14:55 016 8 gusting 16 31.1
2020-Aug-10 14:50 333 4 gusting 18 31.1
2020-Aug-10 14:45 360 7 gusting 18 31.1
2020-Aug-10 14:40 341 7 gusting 13 31.7
2020-Aug-10 14:35 011 6 gusting 13 31.7
2020-Aug-10 14:25 302 7 gusting 14 31.7
2020-Aug-10 14:20 343 8 gusting 16 31.7
2020-Aug-10 14:10 045 8 gusting 17 31.7
2020-Aug-10 14:05 013 7 gusting 17 31.7
2020-Aug-10 14:00 005 6 gusting 14 31.7
2020-Aug-10 13:55 036 4 gusting 16 31.7
2020-Aug-10 13:50 011 9 gusting 19 31.7
2020-Aug-10 13:45 011 5 gusting 19 31.7
2020-Aug-10 13:35 013 7 gusting 15 31.7
2020-Aug-10 13:30 341 9 gusting 19 31.7
2020-Aug-10 13:25 011 6 gusting 19 31.7
2020-Aug-10 13:20 355 7 gusting 17 32.2
2020-Aug-10 13:15 323 6 gusting 13 31.7
2020-Aug-10 13:10 344 6 gusting 16 31.7
2020-Aug-10 13:05 072 8 gusting 16 31.7
2020-Aug-10 13:00 057 7 gusting 18 31.7